Regional Weather Roundup
Issued by NWS

Home | Current Version | Previous Version | Text Only | Print | Product List | Glossary On
Versions: 1 2 3 4 5 6 7 8 9 10 11 12 13 14 15 16 17 18 19 20 21 22 23 24 25 26 27 28 29 30 31 32 33 34 35 36 37 38 39 40 41 42 43 44 45 46 47 48 49 50
000
ASUS44 KOUN 280710
RWROK

WEATHER ROUNDUP FOR OKLAHOMA
NATIONAL WEATHER SERVICE NORMAN OK
200 AM CDT WED SEP 28 2016

NOTE: "FAIR" INDICATES FEW OR NO CLOUDS BELOW 12,000 FEET WITH NO
      SIGNIFICANT WEATHER AND/OR OBSTRUCTIONS TO VISIBILITY.

OKZ001>007-009>012-014-015-017-280800-
NORTHWEST OKLAHOMA AND THE PANHANDLE

CITY           SKY/WX    TMP DP  RH WIND       PRES   REMARKS
GAGE           CLEAR     55  45  68 SW8       30.04S
GUYMON         CLEAR     56  38  50 W5        30.07S
ENID/WOODRING  CLEAR     55  52  88 S6        29.96S
$$

OKZ016-021>023-033>039-044-045-280800-
SOUTHWEST OKLAHOMA

CITY           SKY/WX    TMP DP  RH WIND       PRES   REMARKS
LAWTON/REGL    CLOUDY    57  52  83 W3        30.02F
LAWTON/FT SILL CLEAR     62  50  63 W7        30.01S HAZE
FREDERICK      PTCLDY    60  53  77 W8        30.00F
CLINTON        CLEAR     61  48  62 SW13      30.05S
HOBART         CLEAR     56  51  84 SW7       30.04S
ALTUS AFB      PTCLDY    61  48  62 NW5       30.03F
$$

OKZ018>020-024>031-280800-
CENTRAL OKLAHOMA

CITY           SKY/WX    TMP DP  RH WIND       PRES   REMARKS
OKLAHOMA CITY  CLEAR     57  49  74 SW6       30.00F
OKC/WILEY POST CLEAR     62  50  64 SW9       30.00F
OKC/TINKER AFB CLEAR     59  49  69 SW7       29.99F
STILLWATER     CLEAR     58  50  75 SW5       29.97F
GUTHRIE        CLEAR     62  50  64 SW6       29.98F
$$

OKZ008-013-054>072-280800-
NORTHEAST OKLAHOMA

CITY           SKY/WX    TMP DP  RH WIND       PRES   REMARKS
TULSA          CLEAR     69  49  48 SW6       29.94F
TULSA/JONES    CLEAR     57  52  83 CALM      29.97S
PONCA CITY     CLEAR     62  50  64 SW3       29.95S
BARTLESVILLE   CLEAR     63  50  62 W7        29.95S
MUSKOGEE       CLEAR     56  51  84 S5        29.98F
$$

OKZ032-040>043-046>053-073>077-280800-
SOUTH CENTRAL/SOUTHEAST OKLAHOMA

CITY           SKY/WX    TMP DP  RH WIND       PRES   REMARKS
ARDMORE/DWNTWN CLEAR     55  50  82 CALM      30.02S
MCALESTER      CLEAR     53  48  83 CALM      30.01S
$$




USA.gov is the U.S. government's official web portal to all federal, state and local government web resources and services.